User: anonymous   Login
Location: Vancouver
(49.2500°N, 123.1330°W)
Time: 10:08:50
(UTC-07:00)
Language:

Transit 2A Rocket - Orbit

View from above orbital plane
View from above orbital plane
View from above satellite
View from above satellite

Ground track
Ground track

The orbit data is extracted from the following two-line orbital elements,

1    47U 60007C   17295.92293130 +.00000016 +00000-0 +28597-4 0  9999
2    47 066.6660 224.4543 0234933 291.1007 066.5126 14.41947438995050
Epoch (UTC): 22 October 2017 22:09:01
Eccentricity: 0.0234933
inclination: 66.6660°
perigee height: 584 km
apogee height: 919 km
right ascension of ascending node: 224.4543°
argument of perigee: 291.1007°
revolutions per day: 14.41947438
mean anomaly at epoch: 66.5126°
orbit number at epoch: 99505

The dashed part of the orbit path shows where the satellite is in the earth's shadow,  

DLR